Temperature
8 6 6 6 7 8 8 8 7 8 8 8 7 7 8 8 9 8 8 9 9 9 9 9 9 9 9 9 9 9 9 8 8 8 8 8 8 8 8 8 8 8 8 8
6 6 7 7 8 8 8 7 7 7 8 8 7 7 7 7 8 8 8 8 9 9 9 9 9 8 8 8 8 8 8 8 8 8 8 8 8 8 8 8 8 8 7 7
7 7 8 8 7 7 7 7 7 7 7 7 7 6 7 7 8 8 8 9 9 8 8 8 8 8 8 8 8 8 8 8 7 7 7 7 7 7 7 7 7 7 7 7
6 7 7 7 7 7 7 7 7 7 6 5 6 5 6 6 6 7 7 8 8 8 8 8 8 8 8 8 8 8 7 7 7 7 7 7 7 7 7 7 7 7 6 6
6 6 7 7 7 7 6 6 6 6 5 4 5 5 5 5 6 6 6 7 7 8 8 8 8 8 7 7 7 7 7 7 6 6 6 6 6 6 6 6 6 6 6 6
6 6 6 6 6 7 6 6 5 4 3 4 4 4 5 5 6 6 6 6 7 7 7 7 7 7 7 7 7 6 6 6 6 6 6 6 5 5 5 5 5 5 5 5
5 6 6 6 6 6 5 4 4 4 3 4 4 4 5 5 5 5 5 6 6 6 7 7 6 6 6 6 6 6 6 6 5 5 5 5 5 5 5 5 5 5 5 5
5 5 5 5 5 5 5 5 4 4 4 3 4 4 4 5 5 5 6 6 6 6 6 6 6 6 6 6 6 6 5 5 5 5 5 5 4 4 4 4 4 4 4 4
4 4 5 5 5 5 4 3 4 3 2 2 3 3 4 5 4 5 5 5 5 5 5 5 5 5 5 5 5 5 5 5 5 4 4 4 4 4 4 4 3 3 3 3
4 3 4 4 5 5 4 3 2 3 3 3 3 3 4 5 4 4 3 4 4 5 5 5 5 5 5 5 5 4 4 4 4 4 4 4 4 3 3 3 3 3 3 3
3 3 3 3 3 3 3 3 3 2 2 3 3 4 4 4 4 3 3 4 4 4 4 4 4 4 4 4 4 4 4 3 3 3 3 3 3 3 3 2 2 2 2 2
2 1 1 2 3 3 3 3 2 2 2 1 2 3 4 3 3 3 3 4 4 4 4 4 4 4 3 3 3 3 3 3 3 3 3 2 2 2 2 2 2 2 2 2
2 1 2 3 2 2 2 2 2 1 1 0 1 3 4 3 3 3 3 3 4 4 3 3 3 3 3 3 3 3 3 2 2 2 2 2 2 2 2 2 2 1 1 1
2 0 1 3 3 1 1 2 1 1 1 0 1 2 3 3 2 2 3 3 3 3 3 3 3 3 3 3 3 3 2 2 2 2 1 2 1 1 1 1 1 1 1 1
1 -0 -0 0 1 1 1 1 1 1 1 1 2 2 3 3 2 3 3 3 2 2 2 2 2 2 2 2 2 2 2 2 2 1 1 1 1 1 1 1 0 0 0 0
-1 -1 -1 -0 1 1 1 1 1 1 1 1 1 2 3 3 3 2 2 2 2 2 2 2 2 2 2 2 2 1 1 1 1 1 1 1 0 0 0 0 -0 -0 -0 -1
-2 -1 -1 -0 -0 1 1 1 1 1 1 1 1 2 2 1 1 2 2 2 2 2 2 2 2 1 1 1 1 1 1 1 0 0 0 0 -0 -0 -0 -0 -1 -1 -1 -1
-2 -2 -2 -1 -1 1 2 1 1 1 1 1 1 1 1 1 2 2 2 2 2 2 2 1 1 1 1 1 1 1 0 0 0 -0 -0 -0 -1 -1 -1 -1 -1 -1 -1 -2
-2 -2 -2 -1 -1 -0 1 1 1 1 1 0 0 0 1 1 1 1 2 2 2 2 1 1 1 1 0 0 0 0 -0 -0 -1 -1 -1 -1 -1 -1 -1 -1 -1 -2 -2 -2
-2 -2 -2 -2 -1 -0 1 1 1 1 0 1 0 -0 -0 -0 -1 -0 2 1 1 1 1 1 0 0 -0 -0 -0 -0 -1 -1 -1 -1 -1 -1 -2 -2 -2 -2 -2 -2 -2 -2
-2 -2 -2 -2 -1 -1 0 0 1 1 1 1 1 1 0 -1 -0 1 1 1 1 1 0 0 -0 -0 -0 -1 -1 -1 -1 -1 -1 -2 -2 -2 -2 -2 -2 -2 -2 -2 -3 -3
-2 -3 -3 -2 -2 -0 0 -0 -0 1 2 2 1 1 1 1 1 1 0 0 0 0 -0 -0 -1 -1 -1 -1 -1 -1 -2 -2 -2 -2 -2 -2 -2 -2 -3 -2 -3 -3 -3 -3
-2 -2 -2 -2 -0 0 1 1 2 2 1 1 1 1 1 0 0 0 -0 -0 -0 -1 -1 -1 -1 -1 -1 -2 -2 -2 -2 -2 -2 -2 -2 -2 -3 -3 -3 -3 -3 -3 -3 -3
-3 -3 -3 -3 -2 -1 1 1 2 1 1 1 1 1 0 0 -0 -0 -1 -1 -1 -1 -1 -2 -2 -2 -2 -2 -2 -2 -2 -2 -3 -3 -3 -3 -3 -3 -3 -3 -3 -3 -3 -4
-2 -3 -3 -3 -2 -1 0 1 1 1 1 1 0 0 -0 -0 -1 -1 -1 -1 -1 -2 -2 -2 -2 -2 -2 -3 -3 -3 -3 -3 -3 -3 -3 -3 -3 -3 -4 -3 -3 -4 -4 -4
-3 -3 -2 -1 -1 -1 0 1 1 1 0 0 0 -0 -0 -1 -1 -1 -2 -2 -2 -2 -2 -2 -3 -3 -3 -3 -3 -3 -3 -3 -3 -3 -3 -4 -4 -4 -4 -4 -4 -4 -4 -4
Wind_Speed
1 3 3 6 7 5 4 4 5 6 3 3 7 11 11 7 6 6 6 5 5 4 4 3 3 4 5 4 4 4 4 3 3 3 3 2 2 1 1 1 2 3 2 2
3 4 7 4 3 3 4 4 5 6 3 3 6 11 10 8 8 8 8 7 6 4 2 3 3 3 5 5 5 4 4 3 3 3 3 2 2 2 1 1 2 2 2 2
5 4 3 3 2 3 4 6 6 5 5 3 4 8 5 4 4 4 5 6 6 6 5 4 3 3 4 5 5 4 4 3 3 3 3 3 2 1 1 0 0 1 2 2
3 4 2 2 3 4 5 5 4 3 2 4 0 5 7 4 4 4 5 5 5 5 5 4 4 3 4 5 4 4 4 3 3 3 4 4 3 2 2 2 1 0 1 1
3 2 2 4 4 4 4 1 2 2 2 3 2 3 8 3 4 6 5 5 4 4 4 4 4 4 3 3 3 3 3 3 3 3 4 4 3 2 1 1 1 1 1 1
3 2 2 3 1 2 1 2 3 3 2 3 5 6 7 5 7 5 3 3 3 2 3 2 2 2 1 2 3 3 4 3 3 3 3 4 4 3 2 2 2 2 1 1
3 3 1 1 2 2 3 4 3 4 2 6 3 4 8 6 5 5 4 3 2 2 3 2 2 2 2 2 3 3 3 3 3 3 3 3 3 3 3 3 3 2 2 2
1 4 3 1 4 4 3 5 5 4 5 5 3 6 7 4 2 1 2 2 2 2 2 2 2 2 2 3 3 3 3 2 2 3 3 3 3 2 2 2 2 3 3 3
3 4 2 1 1 5 4 4 5 4 1 3 6 6 6 1 1 1 0 1 1 1 2 2 1 1 2 2 3 3 3 2 2 3 2 2 3 3 2 2 2 2 2 2
4 3 3 2 2 1 3 5 4 4 2 4 6 5 5 4 4 3 2 2 2 1 1 1 1 2 2 2 2 2 2 3 2 2 2 1 2 2 2 2 3 3 2 2
2 2 3 2 3 5 3 3 3 3 3 4 5 7 4 5 4 4 3 3 2 2 2 2 2 2 1 1 1 2 2 1 1 2 2 1 2 2 2 2 3 3 2 3
2 3 3 5 4 2 4 5 6 5 5 4 3 7 3 3 3 2 2 2 2 2 2 2 2 1 1 1 1 2 2 2 2 2 1 2 2 1 2 2 2 2 3 3
3 3 2 5 3 1 1 3 4 4 3 5 5 8 2 1 2 2 2 3 3 3 3 2 1 1 1 1 1 2 2 2 2 2 2 2 1 2 2 3 3 2 3 3
3 3 6 8 6 4 4 5 5 5 5 6 9 10 8 6 5 5 4 4 4 4 4 3 3 2 2 2 1 2 2 2 1 1 2 2 3 3 3 3 3 3 3 3
3 4 6 8 6 5 7 9 8 10 9 9 9 9 12 9 7 6 5 4 4 4 4 4 4 3 2 1 1 1 1 1 1 1 2 3 3 3 3 3 3 3 4 4
3 3 2 5 6 6 9 11 12 12 10 11 11 13 10 7 4 4 5 4 5 5 5 5 4 3 3 2 2 1 1 2 1 2 2 2 2 2 3 3 3 3 3 3
3 4 2 5 5 5 8 9 10 7 8 9 12 11 5 4 5 6 6 6 6 6 6 5 5 4 3 3 3 2 2 2 2 2 2 3 3 3 3 3 3 3 3 3
6 5 3 2 2 7 7 3 6 7 7 8 7 6 5 6 5 5 5 5 6 6 5 4 4 3 2 2 2 2 1 1 2 2 3 3 3 3 3 3 3 3 3 3
6 7 4 2 4 8 8 4 4 5 6 6 8 7 5 2 3 4 3 4 5 5 4 4 3 3 2 2 2 1 1 2 2 3 3 3 3 4 4 4 4 3 3 3
3 4 4 3 3 6 6 3 2 2 5 5 5 5 3 0 2 5 3 3 3 3 2 2 1 1 1 2 1 1 2 2 3 4 4 3 3 4 4 4 4 3 3 4
4 3 6 6 6 8 7 3 3 3 6 3 4 4 4 4 5 5 3 3 3 3 2 1 1 1 2 1 1 1 2 3 4 4 3 3 3 4 4 4 3 3 3 3
8 6 7 6 6 9 4 5 6 7 3 2 3 3 4 5 5 4 3 3 3 2 2 1 1 2 2 1 1 2 3 4 3 3 3 3 3 3 3 3 3 3 3 3
8 8 6 9 9 5 5 6 5 3 3 4 3 4 3 4 4 4 4 3 3 2 2 2 1 2 2 2 2 3 4 3 2 2 3 3 3 3 3 3 3 3 3 3
5 4 4 5 8 6 6 5 4 4 4 4 4 4 4 4 5 5 4 4 3 2 2 2 1 2 3 3 2 3 3 2 2 3 3 3 2 2 2 2 2 2 2 2
6 6 5 6 7 5 6 6 5 4 3 2 3 3 4 4 5 5 4 4 3 3 2 2 2 2 3 3 3 3 3 2 2 3 3 3 2 2 2 2 2 2 3 3
6 7 7 8 7 6 6 5 4 4 4 4 3 4 3 3 4 4 4 3 3 3 2 2 2 3 3 3 4 3 3 2 2 2 2 2 2 1 1 1 1 2 2 2
Wind_Direction
104 92 209 220 207 208 209 225 260 260 270 269 252 266 271 263 244 233 225 216 212 218 215 182 167 161 150 149 148 151 149 148 142 137 145 145 159 156 152 113 122 128 129 128
56 239 236 227 215 212 237 255 270 289 293 265 271 275 270 250 235 219 215 214 211 214 187 161 170 170 168 166 161 153 153 155 161 156 158 154 154 157 165 102 88 117 130 135
197 237 237 201 220 226 243 225 242 262 319 315 311 298 279 275 243 229 214 204 199 200 196 184 171 174 164 168 170 168 167 161 162 147 128 113 91 79 90 0 183 113 143 148
234 259 234 207 229 201 246 233 236 253 313 287 353 288 282 276 280 251 229 206 206 208 197 187 182 186 186 188 174 160 161 157 159 150 153 156 168 188 213 211 203 170 135 165
249 238 200 222 235 200 227 259 238 233 212 290 244 227 280 282 263 257 238 217 213 204 190 190 196 198 193 178 165 157 149 152 157 158 165 170 186 199 189 173 191 218 213 193
251 264 210 212 237 186 173 46 35 50 83 268 232 199 272 247 237 249 242 223 214 197 186 186 185 143 137 134 140 148 146 156 159 164 173 181 188 184 171 193 214 234 232 225
308 293 281 142 76 25 83 91 19 349 333 251 235 212 249 254 248 224 219 222 215 176 164 160 153 150 151 147 151 149 148 168 172 173 183 189 192 185 193 206 212 225 232 237
253 281 249 198 181 185 188 155 169 216 238 279 279 234 254 267 276 242 212 193 173 155 162 165 174 174 173 173 168 156 161 178 183 184 198 194 187 186 201 209 212 221 228 233
193 255 313 293 226 155 158 191 173 154 235 274 266 280 299 265 318 303 216 135 191 196 186 181 183 191 191 185 187 179 176 189 202 200 197 192 187 183 198 216 215 222 236 240
164 248 284 313 32 25 156 151 116 146 204 261 280 266 247 253 245 252 251 243 245 242 222 229 227 221 216 209 196 180 179 197 210 202 201 206 194 196 202 206 217 225 235 239
134 187 297 334 206 202 158 162 157 154 178 197 262 267 233 224 222 226 242 243 233 227 236 251 261 248 226 213 183 184 191 187 186 187 189 190 204 204 209 222 233 232 231 228
141 140 253 257 259 237 196 189 162 176 229 210 229 267 263 219 218 205 236 255 260 254 259 254 248 243 219 217 206 197 202 198 201 192 191 208 215 213 224 241 249 240 238 239
141 134 331 329 323 339 223 201 184 161 163 197 212 261 295 304 299 283 262 269 269 267 265 262 259 250 243 243 228 220 215 213 212 191 192 210 227 235 242 251 258 254 244 248
127 168 201 224 235 206 238 234 198 174 201 226 231 254 282 281 283 284 273 263 264 259 256 250 247 248 249 251 240 231 237 223 218 204 205 219 233 240 246 251 257 256 245 243
123 208 237 254 257 244 244 241 220 213 212 219 242 246 263 264 254 252 251 256 264 266 261 245 242 244 241 251 266 243 244 241 221 214 228 243 253 258 256 256 259 257 251 247
131 193 241 276 266 254 260 252 234 230 227 235 253 265 264 264 251 249 248 246 254 255 256 248 246 239 235 239 247 249 249 249 223 223 241 255 256 258 260 258 260 262 259 255
169 163 198 268 297 316 267 236 216 215 212 206 233 248 258 268 259 247 244 236 238 249 256 247 240 233 236 238 232 232 238 237 229 237 252 256 255 256 259 261 261 258 258 254
168 167 196 261 346 247 248 231 207 217 239 225 238 254 248 247 260 264 240 227 245 252 251 248 237 242 249 246 245 235 250 253 245 249 260 257 253 258 258 249 250 253 250 250
180 170 188 203 249 274 291 264 193 204 265 239 231 251 261 268 312 294 253 235 239 244 245 239 230 232 237 235 221 204 262 272 274 269 268 267 258 258 257 248 246 246 244 253
145 162 178 188 221 247 253 257 198 122 282 254 211 229 240 313 293 278 286 282 271 264 252 234 233 226 237 253 203 194 257 268 270 272 272 273 267 260 254 247 246 245 239 247
161 184 203 210 235 261 256 233 127 169 253 251 203 221 213 223 240 268 296 295 277 269 261 239 213 234 250 256 202 232 261 264 270 276 277 282 281 266 259 249 241 241 245 251
180 182 195 185 216 252 225 148 187 225 248 233 228 229 230 248 265 277 282 281 275 261 264 243 231 272 278 252 209 244 262 272 280 275 277 280 283 272 260 247 241 237 235 243
199 194 190 197 218 243 191 203 230 220 231 247 237 234 229 249 258 265 267 268 265 250 262 262 237 281 299 283 227 242 267 277 283 278 278 281 283 277 262 245 246 238 226 224
237 187 189 240 259 253 248 254 255 234 228 239 237 235 228 243 254 260 263 270 262 258 261 266 260 278 295 298 279 259 271 277 272 272 280 281 275 280 278 258 242 231 221 223
213 176 199 244 265 283 265 243 239 234 230 239 253 242 236 243 259 254 257 260 253 262 267 259 254 263 279 291 291 287 282 275 267 270 278 282 276 281 281 272 252 244 237 227
201 188 193 228 226 213 246 241 219 218 235 242 254 271 260 234 246 256 255 252 250 258 263 261 267 267 281 288 290 293 289 269 253 267 276 274 271 276 273 271 309 301 275 273
Height
1496 1501 1502 1500 1499 1499 1500 1502 1502 1498 1494 1494 1493 1489 1485 1483 1483 1482 1481 1481 1480 1480 1481 1483 1483 1485 1486 1487 1488 1489 1490 1491 1492 1493 1494 1495 1496 1496 1497 1498 1498 1499 1500 1501
1500 1501 1497 1496 1497 1498 1499 1501 1501 1498 1494 1494 1492 1488 1482 1479 1478 1477 1477 1477 1478 1478 1478 1479 1481 1482 1482 1483 1484 1485 1486 1488 1489 1489 1491 1492 1493 1493 1494 1494 1495 1496 1497 1498
1498 1497 1494 1495 1497 1498 1498 1500 1499 1499 1496 1493 1494 1488 1481 1477 1475 1474 1474 1474 1475 1475 1475 1476 1477 1478 1479 1480 1481 1482 1483 1485 1486 1487 1488 1489 1490 1490 1491 1491 1492 1493 1494 1495
1497 1494 1494 1495 1496 1496 1498 1495 1495 1497 1501 1502 1498 1499 1483 1478 1475 1473 1472 1472 1472 1473 1473 1473 1474 1475 1475 1476 1478 1479 1480 1482 1483 1484 1484 1485 1485 1486 1487 1488 1489 1489 1490 1491
1496 1493 1493 1494 1494 1494 1495 1494 1495 1496 1500 1503 1500 1502 1487 1479 1476 1472 1470 1469 1469 1470 1470 1471 1472 1472 1473 1474 1475 1476 1477 1479 1480 1481 1482 1482 1483 1484 1484 1485 1486 1487 1487 1488
1494 1492 1492 1491 1491 1492 1493 1496 1498 1502 1505 1506 1498 1501 1489 1480 1473 1469 1468 1467 1467 1468 1469 1470 1470 1471 1471 1472 1473 1474 1475 1476 1477 1478 1479 1480 1480 1481 1481 1482 1483 1484 1484 1484
1495 1493 1491 1490 1492 1493 1495 1501 1509 1509 1513 1504 1496 1496 1485 1473 1469 1467 1467 1466 1466 1467 1467 1468 1468 1469 1469 1470 1471 1472 1472 1473 1474 1475 1476 1477 1477 1478 1478 1479 1480 1480 1481 1481
1497 1496 1491 1490 1490 1493 1495 1498 1507 1509 1510 1503 1496 1493 1479 1470 1468 1466 1466 1466 1466 1466 1466 1467 1467 1467 1468 1468 1469 1470 1470 1471 1472 1472 1473 1474 1474 1475 1475 1476 1476 1477 1477 1477
1498 1495 1491 1489 1488 1490 1494 1499 1498 1508 1511 1510 1498 1489 1476 1468 1467 1467 1466 1466 1465 1465 1466 1466 1466 1467 1467 1467 1467 1468 1468 1468 1469 1469 1470 1471 1471 1471 1472 1472 1473 1473 1473 1473
1494 1498 1492 1490 1489 1489 1491 1495 1502 1505 1505 1503 1496 1491 1480 1470 1468 1467 1466 1465 1465 1465 1465 1465 1465 1465 1465 1466 1466 1466 1466 1466 1466 1466 1467 1467 1468 1468 1468 1469 1469 1469 1469 1469
1493 1498 1496 1493 1492 1491 1493 1495 1497 1503 1504 1503 1501 1486 1470 1467 1466 1466 1465 1465 1464 1464 1464 1464 1464 1464 1464 1464 1464 1463 1463 1463 1463 1463 1464 1464 1464 1465 1465 1465 1465 1465 1465 1465
1493 1499 1500 1494 1490 1488 1488 1490 1495 1500 1502 1502 1499 1484 1466 1465 1464 1464 1464 1464 1464 1463 1463 1463 1463 1462 1462 1461 1461 1461 1461 1461 1461 1461 1461 1461 1461 1461 1461 1461 1461 1461 1460 1460
1492 1498 1499 1494 1494 1492 1489 1488 1491 1494 1499 1502 1498 1481 1465 1464 1463 1463 1463 1462 1462 1462 1461 1461 1460 1460 1459 1459 1459 1458 1458 1458 1458 1458 1458 1458 1457 1457 1457 1457 1456 1456 1456 1456
1488 1495 1495 1491 1487 1489 1489 1487 1488 1492 1496 1494 1487 1474 1466 1464 1463 1463 1462 1461 1460 1460 1459 1458 1458 1457 1457 1457 1456 1456 1455 1455 1455 1455 1455 1454 1454 1454 1453 1453 1453 1452 1452 1451
1488 1493 1493 1489 1486 1486 1484 1483 1484 1485 1484 1484 1475 1472 1463 1461 1461 1460 1460 1459 1458 1457 1456 1455 1455 1455 1454 1454 1454 1453 1453 1452 1452 1451 1451 1451 1450 1450 1450 1449 1448 1448 1447 1447
1488 1492 1492 1488 1482 1482 1479 1475 1475 1476 1475 1475 1471 1466 1459 1458 1458 1457 1457 1456 1455 1454 1453 1453 1453 1452 1452 1452 1451 1451 1450 1449 1449 1448 1447 1447 1447 1446 1446 1445 1444 1443 1442 1442
1489 1491 1492 1489 1484 1480 1476 1467 1467 1467 1465 1466 1464 1459 1456 1456 1455 1454 1453 1453 1452 1451 1451 1450 1450 1449 1449 1449 1449 1448 1447 1446 1446 1445 1444 1444 1443 1442 1442 1441 1440 1439 1438 1438
1486 1490 1492 1490 1488 1482 1464 1459 1459 1460 1458 1458 1456 1454 1453 1453 1452 1451 1450 1450 1449 1449 1448 1448 1447 1447 1446 1446 1446 1445 1444 1443 1442 1442 1441 1440 1439 1438 1437 1437 1436 1435 1434 1434
1478 1484 1489 1489 1487 1476 1463 1457 1457 1459 1456 1453 1453 1451 1451 1450 1449 1448 1448 1447 1446 1446 1445 1445 1444 1444 1443 1443 1442 1441 1441 1440 1439 1438 1437 1436 1435 1434 1433 1433 1432 1431 1430 1430
1478 1480 1485 1486 1483 1476 1460 1455 1453 1456 1457 1449 1448 1449 1449 1449 1451 1447 1445 1445 1444 1443 1443 1442 1441 1441 1441 1440 1439 1438 1437 1437 1436 1435 1434 1433 1431 1430 1429 1429 1428 1427 1427 1426
1478 1480 1480 1481 1480 1468 1455 1452 1453 1460 1454 1446 1445 1446 1446 1447 1446 1444 1442 1442 1441 1440 1440 1439 1439 1438 1438 1437 1436 1435 1434 1433 1433 1431 1430 1429 1428 1427 1426 1425 1424 1423 1422 1422
1470 1475 1477 1477 1477 1465 1449 1451 1453 1449 1445 1444 1444 1444 1443 1443 1442 1441 1440 1439 1438 1437 1437 1436 1436 1435 1435 1434 1433 1432 1431 1430 1429 1428 1427 1425 1424 1423 1422 1421 1420 1419 1419 1418
1462 1460 1461 1461 1456 1447 1445 1444 1443 1443 1442 1442 1441 1441 1441 1440 1439 1438 1437 1436 1435 1435 1434 1434 1433 1432 1431 1431 1430 1429 1428 1427 1425 1424 1423 1422 1421 1420 1419 1417 1416 1416 1416 1415
1454 1452 1455 1454 1446 1443 1442 1441 1441 1441 1440 1439 1439 1438 1438 1437 1436 1435 1434 1433 1433 1432 1431 1431 1430 1429 1428 1428 1427 1426 1424 1423 1422 1421 1419 1419 1418 1416 1415 1414 1413 1413 1413 1412
1446 1448 1449 1448 1442 1440 1438 1437 1437 1437 1437 1437 1436 1436 1435 1434 1433 1432 1431 1431 1430 1429 1429 1428 1427 1426 1425 1424 1423 1422 1421 1420 1419 1418 1417 1416 1414 1413 1412 1412 1411 1410 1410 1410
1439 1441 1442 1439 1435 1436 1434 1433 1434 1434 1433 1433 1433 1432 1432 1431 1430 1429 1428 1428 1427 1426 1425 1425 1424 1423 1422 1421 1420 1419 1418 1417 1416 1415 1414 1413 1412 1411 1410 1409 1409 1408 1408 1408